Location: Dehesa de la Cepeda
(40.6574°N, 4.3013°W)
Time: 18:19:50
(UTC+00:00)

Explorer 7 - Pass Details

Date: 11 August 2021
Orbit: 484 x 676 km, 50.3° (Epoch: 16 September)

Event Time Altitude Azimuth Distance (km) Brightness Sun altitude
Exits shadow 04:16:42 - 297° (WNW) 2,310 9.7 -12.2°
Reaches altitude 10° 04:18:41 10° 313° (NW) 1,674 9.1 -11.9°
Maximum altitude 04:21:26 19° 360° (N) 1,233 9.0 -11.4°
Drops below altitude 10° 04:24:15 10° 47° (NE) 1,712 10.8 -11.0°
Sets 04:26:59 0° 65° (ENE) 2,627 12.5 -10.5°
